Location: ?????
(55.8833°N, 37.6500°E)
Time: 17:34:19
(UTC+00:00)

USA 229 DEB - Pass Details

Date: 27 February 2020
Orbit: 988 x 1224 km, 63.4° (Epoch: 26 March)

Event Time Altitude Azimuth Distance (km) Brightness Sun altitude
Rises 19:13:51 0° 288° (WNW) 3,830 7.4 -34.2°
Reaches altitude 10° 19:16:33 10° 294° (WNW) 2,908 6.7 -34.5°
Maximum altitude 19:23:13 48° 8° (N) 1,437 4.4 -35.2°
Enters shadow 19:23:41 47° 20° (NNE) 1,452 4.4 -35.2°
